Flag for Iran Weather past 2 weeks in Mashhad, Iran

Now
72 °F

Sunny.


Feels Like: 77 °F
Forecast: 46 / 65 °F
Wind: 7 mph from East

Location: Mashhad Airport

Current Time: Oct 25, 2014 at 11:03:59 AM

Latest Report: Oct 25, 2014 at 10:30 AM


Visibility: 10 mi

Pressure: 30.07 "Hg

Humidity: 33%

Dew point: 41 °F

Location of MashhadLocation

Historic Weather in Mashhad — Graph

°F

Mashhad temperature yesterday

Maximum temperature yesterday: 79 °F (at 3:30 PM)
Minimum temperature yesterday: 46 °F (at 5:00 AM)
Average temperature yesterday: 62 °F

Past Weeks' High & Low Weather Summary

 TemperatureHumidityPressure
High82 °F (Oct 20, 12:30 PM)100% (Oct 12, 5:55 AM)30.33 "Hg (Oct 12, 5:55 AM)
Low41 °F (Oct 13, 2:30 AM)14% (Oct 14, 1:30 PM)29.80 "Hg (Oct 18, 12:59 PM)
Average61 °F48%30.09 "Hg
* Reported Oct 10 9:30 AM — Oct 25 9:30 AM, Mashhad, Weather by CustomWeather, © 2014

Note: Actual official high and low records may vary slightly from our data, if they occured in-between our weather recording intervals... More about our weather records

Advertising

Mashhad weather history for previous 24 hours

 ConditionsComfort  
Time TempWeatherWind HumidityBarometerVisibility
9:30 AM
Oct 25
66 °FSunny.5 mph40%30.09 "Hg10 mi
9:00 AM66 °FSunny.7 mph40%30.09 "Hg10 mi
8:30 AM66 °FSunny.No wind40%30.12 "Hg10 mi
8:00 AM61 °FSunny.5 mph45%30.12 "Hg10 mi
7:30 AM57 °FSunny.5 mph44%30.12 "Hg10 mi
7:00 AM54 °FSunny.5 mph54%30.12 "Hg10 mi
6:00 AM50 °FClear.7 mph62%30.09 "Hg10 mi
5:30 AM50 °FClear.5 mph71%30.09 "Hg10 mi
4:55 AM50 °FClear.5 mph67%30.09 "Hg10 mi
4:30 AM52 °FClear.5 mph62%30.09 "Hg10 mi
4:00 AM52 °FClear.5 mph54%30.09 "Hg10 mi
3:30 AM52 °FClear.5 mph54%30.07 "Hg10 mi
3:00 AM52 °FClear.No wind54%30.07 "Hg10 mi
2:30 AM54 °FClear.5 mph58%29.92 "Hg10 mi
2:00 AM54 °FClear.5 mph54%30.07 "Hg10 mi
1:30 AM54 °FClear.5 mph54%30.07 "Hg10 mi
1:00 AM54 °FClear.5 mph54%30.07 "Hg10 mi
12:30 AM57 °FClear.5 mph41%30.04 "Hg10 mi
12:00 AM55 °FClear.7 mph47%30.04 "Hg10 mi
11:30 PM
Oct 24
55 °FClear.7 mph47%30.04 "Hg10 mi
11:00 PM57 °FClear.5 mph39%30.04 "Hg10 mi
10:30 PM59 °FClear.7 mph36%30.04 "Hg10 mi
10:00 PM59 °FClear.7 mph36%30.01 "Hg10 mi
9:30 PM59 °FClear.7 mph39%30.04 "Hg10 mi
9:00 PM59 °FClear.5 mph48%30.01 "Hg10 mi
8:30 PM61 °FClear.5 mph42%30.01 "Hg10 mi
8:00 PM63 °FClear.5 mph37%30.01 "Hg10 mi
7:30 PM66 °FClear.No wind32%30.01 "Hg10 mi
7:00 PM66 °FPassing clouds.7 mph32%29.98 "HgN/A
6:30 PM66 °FPassing clouds.5 mph35%29.98 "HgN/A
6:00 PM68 °FPassing clouds.5 mph33%29.98 "HgN/A
5:30 PM70 °FPassing clouds.5 mph27%29.98 "HgN/A
5:00 PM72 °FScattered clouds.7 mph25%29.95 "HgN/A
4:30 PM73 °FPassing clouds.9 mph22%29.95 "HgN/A
4:00 PM75 °FScattered clouds.9 mph19%29.95 "HgN/A
3:30 PM79 °FScattered clouds.7 mph20%29.95 "HgN/A
3:00 PM77 °FScattered clouds.7 mph21%29.95 "HgN/A
2:20 PM75 °FSunny.5 mph22%29.95 "Hg10 mi
2:00 PM77 °FSunny.5 mph21%29.95 "Hg10 mi
1:30 PM75 °FSunny.7 mph22%29.95 "Hg10 mi
1:00 PM77 °FSunny.5 mph22%29.95 "Hg10 mi
12:30 PM75 °FSunny.9 mph24%29.95 "Hg10 mi
12:00 PM73 °FSunny.12 mph27%29.98 "Hg10 mi
11:30 AM73 °FSunny.12 mph29%29.98 "Hg10 mi
11:00 AM72 °FClear.5 mph36%30.01 "Hg5 mi
Weather by CustomWeather, © 2014

See weather overviewHow to use our weather pages